Location: A�t �Alizem
(31.2076°N, 8.7872°W)
Time: 15:12:32
(UTC+00:00)

Cosmos 1633 Rocket - Pass Details

Date: 27 November 2020
Orbit: 607 x 624 km, 82.5° (Epoch: 25 January)

Event Time Altitude Azimuth Distance (km) Brightness Sun altitude
Rises 18:38:25 0° 353° (N) 2,885 6.4 -14.0°
Reaches altitude 10° 18:40:39 10° 353° (N) 1,974 5.5 -14.4°
Maximum altitude 18:45:01 87° 264° (W) 616 3.0 -15.3°
Drops below altitude 10° 18:49:21 10° 176° (S) 1,953 5.8 -16.2°
Sets 18:51:33 0° 176° (S) 2,851 6.6 -16.7°
